Zurück zum Katalog

FENGYUN 1C DEB

AktivSSO
NORAD 40999·DEBRIS·🇨🇳 China

Gestartet May 10, 1999 von Taiyuan Satellite Launch Center

Loading…

Nächste Überflüge (nächste 24 Stunden)

TLE

AktuellSource: Space-Track

Epoche: Sep 14, 2026, 10:07 UTC

1 40999U 99025EXD 26257.42211043  .00000726  00000-0  47221-3 0  9999
2 40999  99.1029 328.8122 0057701 210.8778 148.8991 14.04965814854315

Verfolge FENGYUN 1C DEB in Echtzeit mit AllMySat

Download on the App Store